ボアッティーニ彗星

C/2010 U3 ( Boattini )

English version
Home page
Updated on October 8, 2017

---------------------------------------------------------------------

・ プロフィール

発見日 2010年10月31日
発見光度 19.4等
発見者 A. Boattini (Mt. Lemmon)

・ 写真集

・ 軌道要素

Epoch 2019 Mar. 18.0 TT = JDT 2458560.5
T 2019 Feb. 26.63100 TT                                 MPCW
q   8.4455302            (2000.0)            P               Q
z  +0.0001978      Peri.   88.08653     -0.36204988     -0.74305530
 +/-0.0000007      Node    43.06730     +0.07255604     -0.62443455
e   0.9983297      Incl.   55.51179     +0.92933068     -0.24072872
From 812 observations 2009 Sept. 16-2017 Mar. 2, mean residual 0".6.

・ 星図

・ 光度変化

        m1 = 7.5 + 5 logΔ + 5.0 log r

---------------------------------------------------------------------

軌道要素はM.P.E.C. 2017-E59に掲載されたものです。
星図はステラナビゲータ Ver.8 (アストロアーツ) で作成したものです。
光度グラフはComet for Windowsで作成したものです。

---------------------------------------------------------------------

Copyright(C) Seiichi Yoshida (comet@aerith.net). All rights reserved.